Flag for China Weather past 2 weeks in Chengdu, Sichuan, China

Now
73 °F

Clear.


Feels Like: 77 °F
Forecast: 65 / 85 °F
Wind: 3 mph from Southwest

Location: Chengdu Airport

Current Time: May 22, 2015 at 8:26:19 PM

Latest Report: May 22, 2015 at 8:00 PM


Visibility: 10 mi

Pressure: 29.83 "Hg

Humidity: 50%

Dew point: 54 °F

Location of ChengduLocation

Historic Weather in Chengdu — Graph

°F

Chengdu temperature yesterday

Maximum temperature yesterday: 79 °F (at 12:00 AM)
Minimum temperature yesterday: 64 °F (at 2:00 PM)
Average temperature yesterday: 70 °F

Past Weeks' High & Low Weather Summary

 TemperatureHumidityPressure
High93 °F (May 19, 3:00 PM)94% (May 15, 3:00 AM)30.18 "Hg (May 15, 3:00 AM)
Low63 °F (May 9, 2:00 AM)12% (May 11, 1:00 PM)29.56 "Hg (May 13, 4:00 PM)
Average76 °F54%29.80 "Hg
* Reported May 7 7:00 PM — May 22 7:00 PM, Chengdu, Weather by CustomWeather, © 2015

Note: Actual official high and low records may vary slightly from our data, if they occured in-between our weather recording intervals... More about our weather records

Advertising

Chengdu weather history for previous 24 hours

 ConditionsComfort  
Time TempWeatherWind HumidityBarometerVisibility
7:00 PM
Fri, May 22
75 °FSunny.6 mph47%29.83 "Hg10 mi
6:00 PM75 °FPassing clouds.6 mph44%29.83 "HgN/A
5:00 PM77 °FPassing clouds.6 mph42%29.83 "HgN/A
4:00 PM77 °FPassing clouds.8 mph44%29.86 "HgN/A
3:00 PM79 °FScattered clouds.6 mph42%29.89 "HgN/A
2:00 PM77 °FScattered clouds.8 mph51%29.92 "HgN/A
1:00 PM75 °FPassing clouds.8 mph54%29.95 "HgN/A
12:00 PM73 °FPassing clouds.8 mph65%29.98 "HgN/A
11:00 AM70 °FPassing clouds.8 mph73%29.98 "HgN/A
10:00 AM68 °FScattered clouds.6 mph73%29.98 "HgN/A
9:00 AM66 °FScattered clouds.8 mph83%29.98 "HgN/A
8:00 AM64 °FScattered clouds.8 mph88%29.98 "HgN/A
7:00 AM66 °FScattered clouds.3 mph83%29.95 "HgN/A
6:00 AM64 °FSprinkles. Clear.1 mph88%29.92 "HgN/A
5:00 AM64 °FSprinkles. Clear.3 mph88%29.92 "HgN/A
4:00 AM64 °FClear.1 mph88%29.89 "Hg10 mi
3:00 AM64 °FSprinkles. Passing clouds.1 mph88%29.92 "Hg6 mi
2:00 AM64 °FSprinkles. Partly cloudy.6 mph88%29.92 "Hg4 mi
1:00 AM64 °FSprinkles. Passing clouds.3 mph94%29.92 "Hg4 mi
12:00 AM64 °FSprinkles. Fog.3 mph94%29.92 "Hg2 mi
11:00 PM
Thu, May 21
66 °FSprinkles. Fog.3 mph88%29.92 "Hg3 mi
10:00 PM66 °FSprinkles. Passing clouds.3 mph88%29.89 "Hg4 mi
9:00 PM64 °FSprinkles. Fog.3 mph94%29.89 "Hg3 mi
8:00 PM66 °FSprinkles. Passing clouds.3 mph83%29.86 "Hg5 mi
Weather by CustomWeather, © 2015

See weather overviewHow to use our weather pages